CPA831 KJFK-VHHH

Flight info

Callsign CPA831
Flight time N/A
Altitude 29000
Route GREKI DCT PUXER DCT 50N073W 55N073W/N0488F310 60N072W 65N071W 70N070W/M084F310 DCT DAPAK DCT 80N060W/M084F330 84N050W DCT ABERI/K0898F330 M153 HTG/K0896F350 M153 SERNA/K0872S1070 Y520 POLHO/K0880S1100 G218 TMR/K0883S1130 B458 DADGA/K0885S1100 W37 PONUD/K0895S1160 W37 GUSIV/K0893S1130 W37 PEXID/K0895S1160 W37 OMBEB/K0895S1130 R473 NNX/K0893S1160 R473 WYN W18 NLG W23 ZUH R473 SIERA
Aircraft B77W/H-SDE1E2E3FGHIJ2J3J4J5M1RWXY/LB1D1

Departure

Time 2026-05-07 11:04
Airport John F. Kennedy International Airport (KJFK)

Arrival

Time N/A
Airport Hong Kong International Airport (VHHH)
Time Latitude Longitude Altitude Speed Heading
2026-05-07 10:20 40.64902 -73.79055 20 ft 0 kts 172°
2026-05-07 10:42 40.64902 -73.79056 20 ft 0 kts 172°
2026-05-07 10:43 40.64902 -73.79055 20 ft 0 kts 172°
2026-05-07 10:43 40.64902 -73.79056 20 ft 0 kts 172°
2026-05-07 10:43 40.64902 -73.79055 20 ft 0 kts 172°
2026-05-07 10:44 40.64902 -73.79056 20 ft 0 kts 172°
2026-05-07 10:45 40.64902 -73.79055 20 ft 0 kts 172°
2026-05-07 10:45 40.64902 -73.79056 20 ft 0 kts 172°
2026-05-07 10:49 40.64916 -73.79058 21 ft 4 kts 172°
2026-05-07 10:50 40.64940 -73.79063 22 ft 1 kts 172°
2026-05-07 10:50 40.64964 -73.79065 24 ft 4 kts 188°
2026-05-07 10:50 40.64986 -73.79052 23 ft 4 kts 238°
2026-05-07 10:50 40.64998 -73.79025 24 ft 4 kts 240°
2026-05-07 10:51 40.65004 -73.79011 24 ft 3 kts 240°
2026-05-07 10:52 40.65004 -73.79010 24 ft 0 kts 240°
2026-05-07 10:53 40.65001 -73.79016 20 ft 2 kts 240°
2026-05-07 10:54 40.64986 -73.79052 22 ft 6 kts 240°
2026-05-07 10:54 40.64958 -73.79118 21 ft 10 kts 240°
2026-05-07 10:54 40.64917 -73.79215 22 ft 14 kts 240°
2026-05-07 10:54 40.64863 -73.79341 20 ft 17 kts 241°
2026-05-07 10:55 40.64805 -73.79478 20 ft 17 kts 240°
2026-05-07 10:55 40.64754 -73.79597 23 ft 15 kts 241°
2026-05-07 10:55 40.64709 -73.79694 21 ft 11 kts 223°
2026-05-07 10:55 40.64637 -73.79683 22 ft 11 kts 149°
2026-05-07 10:56 40.64566 -73.79620 22 ft 14 kts 152°
2026-05-07 10:56 40.64473 -73.79596 20 ft 14 kts 176°
2026-05-07 10:56 40.64362 -73.79594 22 ft 18 kts 182°
2026-05-07 10:56 40.64228 -73.79604 21 ft 19 kts 183°
2026-05-07 10:57 40.64133 -73.79604 23 ft 11 kts 159°
2026-05-07 10:57 40.64084 -73.79526 25 ft 14 kts 123°
2026-05-07 10:57 40.64015 -73.79376 23 ft 24 kts 121°
2026-05-07 10:57 40.63928 -73.79186 24 ft 24 kts 121°
2026-05-07 10:58 40.63844 -73.79000 24 ft 24 kts 121°
2026-05-07 10:58 40.63758 -73.78810 22 ft 24 kts 121°
2026-05-07 10:58 40.63672 -73.78620 24 ft 24 kts 121°
2026-05-07 10:58 40.63586 -73.78431 23 ft 24 kts 121°
2026-05-07 10:59 40.63500 -73.78242 24 ft 24 kts 121°
2026-05-07 10:59 40.63415 -73.78053 23 ft 24 kts 120°
2026-05-07 10:59 40.63361 -73.77925 24 ft 24 kts 119°
2026-05-07 10:59 40.63275 -73.77735 31 ft 24 kts 121°
2026-05-07 11:00 40.63190 -73.77546 24 ft 24 kts 121°
2026-05-07 11:00 40.63104 -73.77357 25 ft 24 kts 121°
2026-05-07 11:00 40.63023 -73.77178 21 ft 20 kts 120°
2026-05-07 11:00 40.62985 -73.77094 23 ft 6 kts 127°
2026-05-07 11:01 40.62941 -73.77090 22 ft 7 kts 200°
2026-05-07 11:01 40.62902 -73.77121 23 ft 4 kts 212°
2026-05-07 11:01 40.62901 -73.77122 22 ft 0 kts 212°
2026-05-07 11:02 40.62890 -73.77131 23 ft 6 kts 211°
2026-05-07 11:02 40.62842 -73.77168 22 ft 5 kts 210°
2026-05-07 11:02 40.62821 -73.77201 24 ft 5 kts 252°
2026-05-07 11:03 40.62831 -73.77245 23 ft 5 kts 296°
2026-05-07 11:03 40.62841 -73.77269 25 ft 0 kts 300°
2026-05-07 11:03 40.62845 -73.77278 25 ft 8 kts 300°
2026-05-07 11:03 40.63015 -73.77652 25 ft 90 kts 301°
2026-05-07 11:04 40.63478 -73.78670 27 ft 168 kts 301°
2026-05-07 11:04 40.64158 -73.80133 490 ft 195 kts 303°
2026-05-07 11:04 40.64875 -73.81713 1382 ft 206 kts 292°
2026-05-07 11:04 40.65557 -73.83299 2167 ft 192 kts 279°
2026-05-07 11:05 40.65566 -73.84971 2471 ft 182 kts 244°
2026-05-07 11:05 40.64841 -73.86326 2853 ft 184 kts 223°
2026-05-07 11:05 40.63731 -73.87158 3250 ft 191 kts 202°
2026-05-07 11:05 40.62463 -73.87704 3713 ft 193 kts 203°
2026-05-07 11:06 40.61179 -73.88271 4211 ft 195 kts 202°
2026-05-07 11:06 40.59882 -73.88836 4674 ft 197 kts 202°
2026-05-07 11:06 40.58469 -73.89020 4850 ft 222 kts 174°
2026-05-07 11:06 40.56973 -73.88165 5042 ft 246 kts 157°
2026-05-07 11:07 40.55457 -73.86942 5203 ft 268 kts 147°
2026-05-07 11:07 40.54293 -73.84921 5612 ft 289 kts 117°
2026-05-07 11:07 40.53907 -73.82299 6258 ft 299 kts 91°
2026-05-07 11:07 40.54363 -73.79599 6809 ft 309 kts 65°
2026-05-07 11:08 40.55657 -73.77331 7260 ft 315 kts 37°
2026-05-07 11:08 40.57530 -73.75882 7706 ft 314 kts 19°
2026-05-07 11:08 40.59580 -73.74833 8213 ft 317 kts 16°
2026-05-07 11:08 40.61670 -73.73825 8749 ft 322 kts 17°
2026-05-07 11:09 40.63782 -73.72798 9310 ft 325 kts 17°
2026-05-07 11:09 40.65921 -73.71758 9844 ft 330 kts 17°
2026-05-07 11:09 40.68063 -73.70719 10309 ft 335 kts 16°
2026-05-07 11:09 40.70290 -73.69642 10612 ft 348 kts 16°
2026-05-07 11:10 40.72634 -73.68511 10763 ft 368 kts 17°
2026-05-07 11:10 40.75096 -73.67320 10923 ft 387 kts 17°
2026-05-07 11:10 40.77693 -73.66060 11102 ft 406 kts 17°
2026-05-07 11:10 40.80386 -73.64749 11531 ft 417 kts 17°
2026-05-07 11:11 40.83132 -73.63406 12127 ft 423 kts 17°
2026-05-07 11:11 40.85910 -73.62045 12782 ft 428 kts 17°
2026-05-07 11:11 40.88713 -73.60672 13483 ft 431 kts 17°
2026-05-07 11:11 40.91535 -73.59290 14137 ft 434 kts 17°
2026-05-07 11:12 40.94382 -73.57894 14776 ft 437 kts 16°
2026-05-07 11:12 40.97204 -73.56511 15436 ft 439 kts 16°
2026-05-07 11:12 41.00071 -73.55104 16108 ft 440 kts 16°
2026-05-07 11:12 41.02961 -73.53686 16759 ft 443 kts 15°
2026-05-07 11:13 41.05868 -73.52258 17382 ft 446 kts 15°
2026-05-07 11:13 41.08793 -73.50821 18005 ft 449 kts 15°
2026-05-07 11:13 41.11727 -73.49376 18561 ft 452 kts 15°
2026-05-07 11:13 41.14656 -73.47933 19074 ft 455 kts 15°
2026-05-07 11:14 41.17642 -73.46462 19582 ft 458 kts 15°
2026-05-07 11:14 41.20649 -73.44978 20085 ft 462 kts 15°
2026-05-07 11:14 41.23672 -73.43484 20576 ft 465 kts 15°
2026-05-07 11:14 41.26722 -73.41975 21071 ft 469 kts 14°
2026-05-07 11:15 41.29797 -73.40451 21565 ft 472 kts 14°
2026-05-07 11:15 41.32885 -73.38920 22054 ft 475 kts 14°
2026-05-07 11:15 41.35992 -73.37378 22531 ft 478 kts 14°
2026-05-07 11:15 41.39118 -73.35825 23007 ft 482 kts 14°
2026-05-07 11:16 41.42278 -73.34254 23421 ft 486 kts 14°
2026-05-07 11:16 41.45464 -73.32726 23791 ft 487 kts 11°
2026-05-07 11:16 41.48734 -73.31570 24178 ft 484 kts
2026-05-07 11:16 41.52002 -73.30834 24576 ft 480 kts 358°
2026-05-07 11:17 41.55324 -73.30452 24946 ft 480 kts 356°
2026-05-07 11:17 41.58668 -73.30117 25317 ft 483 kts 356°
2026-05-07 11:17 41.62028 -73.29788 25702 ft 485 kts 356°
2026-05-07 11:17 41.65409 -73.29449 26080 ft 488 kts 356°
2026-05-07 11:18 41.68808 -73.29097 26443 ft 490 kts 356°
2026-05-07 11:18 41.72211 -73.28733 26795 ft 493 kts 356°
2026-05-07 11:18 41.75643 -73.28357 27144 ft 495 kts 356°
2026-05-07 11:18 41.79091 -73.27975 27494 ft 498 kts 356°
2026-05-07 11:19 41.82540 -73.27591 27830 ft 500 kts 356°
2026-05-07 11:19 41.85921 -73.27213 28120 ft 502 kts 356°
2026-05-07 11:19 41.89451 -73.26818 28426 ft 504 kts 356°
2026-05-07 11:19 41.92908 -73.26431 28735 ft 506 kts 356°
2026-05-07 11:20 41.96433 -73.26035 29008 ft 509 kts 356°
2026-05-07 11:20 41.99965 -73.25641 29293 ft 510 kts 356°
2026-05-07 11:20 42.03497 -73.25244 29684 ft 509 kts 355°
2026-05-07 11:20 42.07022 -73.24845 30121 ft 507 kts 355°
2026-05-07 11:21 42.10530 -73.24448 30492 ft 505 kts 355°
2026-05-07 11:21 42.14030 -73.24052 30819 ft 504 kts 355°
2026-05-07 11:21 42.21071 -73.23267 30899 ft 507 kts 355°
2026-05-07 11:22 42.28032 -73.22479 30905 ft 502 kts 355°
2026-05-07 11:22 42.34994 -73.21690 30917 ft 502 kts 354°
2026-05-07 11:23 42.41963 -73.20904 30908 ft 502 kts 354°
2026-05-07 11:23 42.48923 -73.20117 30921 ft 502 kts 354°
2026-05-07 11:24 42.55900 -73.19325 30918 ft 503 kts 354°
2026-05-07 11:24 42.62872 -73.18529 30922 ft 502 kts 354°
2026-05-07 11:25 42.69842 -73.17731 30922 ft 503 kts 354°
2026-05-07 11:25 42.76791 -73.16937 30917 ft 505 kts 354°
2026-05-07 11:26 42.83794 -73.16134 30896 ft 505 kts 354°
2026-05-07 11:26 42.90799 -73.15328 30925 ft 505 kts 354°
2026-05-07 11:27 42.97818 -73.14518 30919 ft 506 kts 354°
2026-05-07 11:27 43.04826 -73.13708 30926 ft 505 kts 354°
2026-05-07 11:28 43.11827 -73.12896 30911 ft 504 kts 354°
2026-05-07 11:28 43.18818 -73.12084 30921 ft 504 kts 354°
2026-05-07 11:29 43.25808 -73.11271 30878 ft 502 kts 354°
2026-05-07 11:29 43.32773 -73.10460 30911 ft 503 kts 354°
2026-05-07 11:30 43.39716 -73.09650 30885 ft 503 kts 354°
2026-05-07 11:30 43.46701 -73.08833 30902 ft 504 kts 354°
2026-05-07 11:31 43.53703 -73.08009 30888 ft 505 kts 354°
2026-05-07 11:31 43.60705 -73.07188 30897 ft 505 kts 354°
2026-05-07 11:32 43.71219 -73.05945 30876 ft 506 kts 354°
2026-05-07 11:32 43.74733 -73.05530 31171 ft 510 kts 352°
2026-05-07 11:33 43.78300 -73.05117 31050 ft 518 kts 352°
2026-05-07 11:33 43.85531 -73.04270 30932 ft 523 kts 352°
2026-05-07 11:34 43.92733 -73.03399 30871 ft 522 kts 352°
2026-05-07 11:34 43.99956 -73.02527 30879 ft 520 kts 352°
2026-05-07 11:35 44.07156 -73.01665 30865 ft 518 kts 353°
2026-05-07 11:35 44.14338 -73.00806 30882 ft 519 kts 353°
2026-05-07 11:36 44.21544 -72.99945 30870 ft 521 kts 353°
2026-05-07 11:36 44.28777 -72.99077 30880 ft 522 kts 353°
2026-05-07 11:37 44.36030 -72.98201 30888 ft 524 kts 353°
2026-05-07 11:37 44.43315 -72.97317 30889 ft 525 kts 354°
2026-05-07 11:38 44.50551 -72.96439 30878 ft 525 kts 354°
2026-05-07 11:38 44.57824 -72.95553 30881 ft 524 kts 355°
2026-05-07 11:39 44.65092 -72.94667 30859 ft 523 kts 355°
2026-05-07 11:39 44.72336 -72.93779 30862 ft 522 kts 355°
2026-05-07 11:40 44.79574 -72.92892 30860 ft 521 kts 355°
2026-05-07 11:40 44.86802 -72.92005 30863 ft 520 kts 356°
2026-05-07 11:41 44.94014 -72.91118 30864 ft 520 kts 356°
2026-05-07 11:41 45.01218 -72.90229 30857 ft 519 kts 356°
2026-05-07 11:42 45.08416 -72.89337 30857 ft 519 kts 356°
2026-05-07 11:42 45.15459 -72.88463 30850 ft 519 kts 357°
2026-05-07 11:43 45.22654 -72.87568 30845 ft 519 kts 357°
2026-05-07 11:43 45.29848 -72.86671 30851 ft 519 kts 357°
2026-05-07 11:44 45.37051 -72.85770 30847 ft 519 kts 357°
2026-05-07 11:44 45.44227 -72.85370 30840 ft 512 kts 351°
2026-05-07 11:45 45.51330 -72.85622 30848 ft 510 kts 351°
2026-05-07 11:45 45.58439 -72.85912 30842 ft 511 kts 351°
2026-05-07 11:46 45.65518 -72.86154 30835 ft 512 kts 351°
2026-05-07 11:46 45.72654 -72.86366 30824 ft 513 kts 352°
2026-05-07 11:47 45.79796 -72.86571 30818 ft 513 kts 352°
2026-05-07 11:47 45.85781 -72.86745 30812 ft 514 kts 352°
2026-05-07 11:48 45.92882 -72.86953 30804 ft 514 kts 352°
2026-05-07 11:48 46.00046 -72.87166 30798 ft 514 kts 352°
2026-05-07 11:49 46.07200 -72.87379 30796 ft 514 kts 352°
2026-05-07 11:49 46.14369 -72.87594 30788 ft 514 kts 352°
2026-05-07 11:50 46.21528 -72.87808 30779 ft 514 kts 352°
2026-05-07 11:50 46.28644 -72.88021 30792 ft 515 kts 352°
2026-05-07 11:51 46.35816 -72.88237 30787 ft 515 kts 352°
2026-05-07 11:51 46.42992 -72.88453 30780 ft 515 kts 353°
2026-05-07 11:52 46.50171 -72.88670 30782 ft 516 kts 353°
2026-05-07 11:52 46.57344 -72.88887 30785 ft 516 kts 353°
2026-05-07 11:53 46.64530 -72.89105 30788 ft 516 kts 353°
2026-05-07 11:53 46.71677 -72.89323 30774 ft 516 kts 353°
2026-05-07 11:54 46.78863 -72.89542 30775 ft 516 kts 353°
2026-05-07 11:54 46.86048 -72.89762 30778 ft 516 kts 353°
2026-05-07 11:55 46.93223 -72.89982 30786 ft 515 kts 353°
2026-05-07 11:55 47.00404 -72.90203 30777 ft 516 kts 354°
2026-05-07 11:56 47.07540 -72.90425 30772 ft 516 kts 354°